Theta_e
331 326 330 332 324 319 315 314 301 306 304 299 300 302 301 309 309 308 308 312 309 314 316 316 317 316 314 313 318 331 328 329 329 317 319 337 346 345 346 347 346 345 344 347 349 349 350 352 352 352 352 352 351 351 351 351 352 352 352 352 352 352 352 353 353 354 354 354 353 353 353 353 353 353 353 352 352 352 351 352 352 351 351 351 351 351 350 351 350 350 350 350 349 349 349 348 347
323 324 327 327 320 316 309 313 303 301 301 299 300 304 305 309 309 308 307 312 312 314 317 318 317 319 319 318 323 332 331 335 337 335 341 345 346 345 348 348 346 343 343 345 348 348 349 351 352 352 352 352 352 351 352 352 352 352 352 352 352 353 353 354 354 354 354 353 353 354 353 353 353 353 352 352 351 351 352 352 352 352 352 351 351 351 350 350 350 349 349 350 349 348 348 347 346
323 322 320 320 318 314 312 311 298 299 296 295 299 303 309 306 306 308 311 314 316 318 318 317 317 318 317 318 322 325 325 337 338 340 339 345 340 344 348 348 347 343 341 343 345 347 348 350 352 352 352 352 351 351 351 351 352 352 353 353 353 353 354 354 354 354 354 353 354 353 353 353 353 353 352 352 352 351 351 352 352 352 351 351 350 349 350 349 350 350 349 349 348 348 347 347 346
326 323 318 317 308 313 306 305 302 299 296 298 299 305 306 307 308 310 315 316 317 316 316 315 313 323 317 314 321 334 335 334 339 339 338 341 343 347 348 348 348 343 342 342 343 346 349 351 352 351 351 351 351 351 351 352 352 353 353 353 354 354 354 354 354 354 354 353 353 353 353 352 352 353 352 351 351 351 351 351 351 350 350 350 349 348 348 348 348 347 346 346 348 347 346 346 345
318 317 318 315 309 304 305 303 301 301 296 300 298 305 307 308 309 311 314 316 315 315 315 315 313 319 326 327 324 322 330 339 340 342 340 344 348 349 348 348 346 343 343 342 343 347 349 352 352 351 351 351 351 350 350 351 351 353 353 353 354 354 354 354 354 354 354 353 353 353 353 353 352 352 352 352 351 351 350 350 350 350 350 349 348 349 347 346 346 346 347 347 347 345 345 345 345
318 316 318 315 307 312 306 300 299 299 302 304 302 304 308 310 310 311 312 313 313 314 314 313 311 312 329 333 336 329 337 329 340 342 345 344 348 350 348 349 346 344 344 344 344 346 348 351 352 352 351 350 350 350 350 351 351 352 353 354 354 354 354 354 354 354 353 353 353 353 353 352 352 351 350 349 348 349 349 350 349 349 348 348 348 347 347 345 345 347 348 346 345 345 345 347 347
315 315 313 312 310 309 299 298 298 300 303 306 304 306 308 309 311 311 311 311 313 313 316 314 317 316 325 332 332 333 339 340 338 344 348 348 349 349 348 347 346 345 346 344 343 345 348 351 351 351 351 350 350 350 350 351 352 353 353 354 354 354 354 354 353 353 353 353 352 352 352 351 351 350 350 349 349 348 348 348 347 347 346 346 346 346 346 346 348 347 346 343 343 345 346 346 347
319 310 310 305 303 304 299 299 299 301 302 307 308 307 309 310 311 311 310 309 309 308 313 319 319 315 324 335 326 333 341 345 343 349 349 349 349 349 349 347 345 345 344 344 345 347 352 351 352 351 351 351 351 351 351 352 353 354 354 354 354 354 353 354 353 353 353 353 352 352 351 351 350 350 350 349 349 349 348 347 347 348 347 347 346 345 345 345 346 344 342 343 346 345 346 346 347
315 310 311 304 300 303 300 299 300 305 304 307 307 310 316 311 311 310 309 310 310 311 310 311 317 314 324 330 329 334 339 347 349 350 349 349 348 349 348 347 345 345 345 346 347 347 348 351 351 350 350 352 351 352 352 353 354 354 354 354 354 353 353 353 353 353 352 352 352 351 351 350 350 349 348 347 347 346 346 345 345 346 346 345 345 345 345 344 344 344 342 344 345 347 347 347 346
311 309 302 302 301 296 298 299 299 302 304 307 307 308 310 311 310 311 310 309 309 310 311 313 314 314 331 327 328 334 339 347 348 347 349 350 349 349 351 350 347 346 344 344 344 345 347 351 350 350 350 352 351 352 353 353 354 354 354 354 353 353 353 353 353 352 352 351 351 351 350 349 349 347 345 345 344 343 342 343 344 344 344 343 343 342 342 344 343 344 346 346 347 347 347 347 347
305 309 308 300 297 295 295 297 300 303 305 308 308 310 311 312 310 309 311 309 311 309 311 312 309 311 328 331 332 343 346 346 346 345 348 348 350 350 348 350 348 347 342 343 344 344 344 344 350 350 351 352 352 352 353 353 353 354 354 354 353 353 353 353 352 352 351 351 350 349 348 347 347 346 346 346 345 343 341 340 341 342 341 341 341 340 341 343 345 344 345 345 345 347 347 347 346
303 303 304 296 296 296 297 298 300 303 305 306 306 310 311 311 311 309 308 307 309 309 308 311 308 312 324 331 330 341 345 346 346 348 348 349 348 350 347 348 347 346 344 344 344 344 344 343 345 350 351 352 352 352 353 353 353 353 353 353 353 353 352 352 352 351 351 350 349 349 348 348 347 346 345 345 345 344 343 341 340 341 342 341 341 342 343 343 344 344 344 345 345 345 346 346 346
304 305 301 298 297 298 299 299 300 303 303 304 306 310 312 310 310 310 308 308 308 307 307 311 312 314 324 331 337 342 341 346 348 348 349 348 348 348 348 347 347 347 346 346 344 344 344 342 342 344 349 352 352 352 352 352 353 353 353 353 352 352 352 352 351 351 350 349 349 349 348 348 346 346 346 346 345 345 344 342 340 341 341 341 342 342 342 341 343 342 342 344 345 345 346 346 345
305 306 303 297 302 299 298 299 300 299 300 305 308 310 312 310 311 310 308 306 307 306 310 313 312 333 332 335 335 336 340 347 348 351 349 348 348 347 347 347 348 346 346 346 343 343 343 342 343 343 346 348 350 352 352 352 352 353 352 352 352 352 351 351 351 350 350 349 349 348 348 348 348 347 346 345 345 345 344 343 341 340 340 340 341 341 341 342 342 342 343 343 345 346 347 347 346
305 308 304 300 299 300 301 297 299 299 300 306 308 309 310 311 310 309 308 306 307 312 313 315 313 332 328 331 330 335 341 346 348 349 348 347 348 346 347 346 346 347 345 344 344 343 343 343 342 342 344 345 346 349 349 349 351 351 352 352 351 351 351 351 350 350 350 349 349 348 348 348 347 347 346 346 346 345 344 344 342 341 341 341 341 341 342 342 341 340 342 344 345 345 346 347 346
308 307 304 298 297 298 300 300 302 300 300 306 309 309 309 309 311 308 309 310 309 313 314 309 314 309 336 334 335 339 344 346 348 348 347 347 346 346 345 345 344 345 344 343 343 343 344 342 342 343 343 344 345 347 347 348 350 351 351 351 351 351 351 351 350 350 350 350 350 349 348 348 347 345 346 345 345 345 344 343 343 342 341 342 341 342 342 342 341 342 342 344 346 346 347 347 346
310 307 299 299 296 298 300 301 302 298 304 306 308 309 306 306 311 311 313 313 309 309 311 314 313 319 332 336 341 342 346 347 347 346 345 342 343 341 342 342 342 343 344 343 343 344 345 343 343 344 343 344 344 345 345 347 348 350 351 351 351 351 350 351 350 350 350 350 349 348 348 347 347 346 345 343 345 345 345 344 344 343 342 341 342 342 343 342 341 343 343 343 345 345 347 347 346
308 301 299 297 299 298 302 302 304 307 305 307 307 308 307 305 308 310 313 312 313 316 314 316 330 322 335 341 344 345 345 345 345 342 341 340 341 339 339 341 341 340 341 341 343 345 344 344 345 344 344 344 345 345 345 346 347 349 349 349 349 350 351 351 350 349 352 349 349 349 349 349 348 347 349 348 346 343 343 344 344 344 343 342 342 343 342 343 342 342 342 342 344 345 346 346 346
304 301 299 296 300 302 306 306 307 306 305 308 308 309 308 307 308 311 313 315 316 314 314 322 325 329 339 343 343 343 343 344 344 343 341 340 339 339 339 340 341 341 340 341 342 345 346 345 345 344 345 346 345 345 344 343 344 343 344 349 349 350 351 351 349 349 350 349 348 348 350 349 347 348 350 349 347 344 344 345 345 344 343 343 343 343 344 342 343 342 342 342 342 344 344 344 345
307 302 298 299 304 305 307 308 307 308 309 308 308 308 308 309 309 312 314 315 316 313 311 325 329 334 338 340 342 342 342 343 345 344 342 342 340 340 340 341 340 341 341 341 342 347 346 346 348 347 346 347 346 344 342 341 342 342 342 347 348 348 349 349 349 347 348 348 348 348 349 351 352 350 349 349 351 346 345 345 345 345 344 345 344 343 344 344 344 344 343 342 342 338 337 341 343
307 303 299 302 305 303 305 308 309 309 309 307 307 308 307 309 310 310 309 310 312 314 315 318 329 332 337 341 341 343 342 343 344 344 343 342 342 342 342 342 341 341 342 343 344 345 346 347 348 347 347 347 346 344 340 340 342 340 340 346 346 347 347 347 346 347 347 348 346 349 350 347 349 345 347 347 347 347 345 345 345 344 344 343 345 341 342 341 342 338 334 338 335 334 334 336 339
307 303 304 305 306 303 307 308 309 309 309 307 307 305 306 311 310 308 308 306 307 313 315 318 334 338 338 338 341 342 341 342 342 342 342 342 342 342 344 343 345 344 344 342 343 343 346 346 347 347 347 346 346 343 341 342 343 340 340 341 344 345 345 345 346 346 348 350 348 350 349 347 346 348 340 344 343 345 346 345 345 344 344 342 344 341 343 340 340 337 332 330 331 332 332 333 335
301 305 305 305 306 304 308 308 309 309 308 307 305 307 309 308 308 310 309 308 310 314 319 319 336 340 341 342 342 341 341 342 341 342 342 342 343 344 344 343 341 341 342 342 344 344 347 347 347 346 345 345 346 344 343 343 342 343 342 341 342 342 343 343 342 343 345 349 349 346 346 347 344 354 346 348 349 351 346 346 347 346 345 344 341 340 341 344 340 338 334 333 332 332 331 332 336
305 302 305 305 306 305 307 308 310 309 308 306 308 309 306 306 303 309 308 311 312 313 322 328 335 341 342 341 341 341 341 341 342 343 344 344 344 344 345 342 342 343 342 342 343 344 345 345 346 346 345 345 344 344 342 341 343 342 344 343 343 344 342 341 344 343 346 347 351 348 350 349 349 350 348 343 339 341 346 347 350 349 348 346 352 349 345 345 346 344 345 337 334 333 333 332 331
303 302 305 306 306 306 307 308 308 309 308 308 308 305 305 306 307 309 308 310 312 315 329 330 332 338 341 341 341 342 341 342 342 342 342 342 344 345 345 343 343 343 341 342 343 344 345 346 347 345 343 343 343 342 340 341 344 344 344 342 346 346 345 344 345 345 342 343 349 350 349 351 351 350 345 340 340 341 344 349 349 347 348 347 350 351 350 350 347 347 344 340 338 336 335 335 334
305 304 306 306 306 307 307 307 308 308 309 309 306 304 306 308 310 307 308 311 313 325 331 332 335 332 332 337 340 341 341 342 342 338 336 341 343 344 343 342 343 341 342 343 343 344 344 345 344 342 343 340 341 341 343 342 344 344 342 343 343 344 346 349 346 343 347 344 345 348 349 352 351 345 345 344 342 339 347 348 350 348 349 349 350 352 353 352 350 350 347 342 338 340 338 338 338
307 305 305 305 306 306 308 306 307 308 308 309 305 304 305 308 307 302 309 311 313 319 328 331 332 333 336 338 340 341 340 338 331 334 333 334 339 342 342 342 341 343 343 342 343 343 344 344 342 343 342 343 342 339 341 341 344 342 343 342 341 345 347 345 345 345 347 346 347 352 352 350 351 347 344 344 345 345 346 344 345 346 347 354 352 350 351 350 350 348 344 346 345 342 343 342 339
306 306 305 305 306 306 307 307 307 308 306 308 307 304 306 307 306 303 308 311 312 313 327 329 328 329 331 336 338 334 325 325 329 329 332 331 338 339 340 340 342 343 342 342 342 343 343 343 342 342 343 345 344 339 342 341 341 342 346 341 342 348 346 346 348 350 352 348 350 351 352 352 349 350 348 343 343 341 341 342 345 347 349 352 351 350 349 349 349 344 345 348 345 346 344 342 341
305 304 301 303 304 303 305 304 306 308 306 308 308 304 302 303 302 307 309 311 313 314 326 325 328 329 329 330 326 324 327 328 329 329 330 335 335 341 340 343 342 341 342 343 342 342 342 341 339 340 341 346 349 339 340 342 342 342 343 343 346 348 348 349 349 349 350 350 352 353 351 350 349 349 350 347 344 343 344 350 348 350 351 351 349 350 349 348 346 346 348 349 347 345 345 342 343
305 303 301 300 301 300 304 306 306 306 306 308 307 294 297 301 305 307 310 310 316 318 324 324 325 325 324 324 326 325 327 328 327 329 333 334 339 339 341 343 342 341 340 341 342 340 341 342 343 344 342 344 345 343 343 342 345 344 345 348 349 349 350 349 349 351 351 349 351 351 350 349 349 351 348 350 352 348 349 348 348 349 353 353 354 353 351 350 349 346 346 345 344 344 340 342 342
299 301 302 298 296 296 304 304 305 303 307 306 306 295 297 302 305 308 311 314 322 320 319 322 321 321 322 320 322 324 327 329 329 330 332 330 333 337 339 340 343 342 340 340 340 340 341 341 343 341 345 345 343 344 345 346 345 344 345 346 347 347 346 347 348 348 349 351 350 351 351 351 348 349 352 351 349 349 347 348 350 351 354 351 351 354 351 349 346 346 345 342 342 342 342 341 340
300 296 294 298 295 297 302 305 304 301 305 307 304 296 298 302 307 311 314 325 324 317 323 321 321 321 320 321 324 324 325 327 328 329 333 332 330 331 338 336 340 340 340 340 340 340 340 342 343 341 344 343 345 347 348 347 344 347 346 345 348 347 345 343 345 347 348 349 351 350 348 349 352 352 351 350 352 348 347 349 350 353 352 351 353 350 348 344 345 345 345 343 339 337 337 335 338
299 296 295 294 296 296 299 303 304 305 304 305 303 296 299 301 317 321 325 325 325 321 321 321 319 320 319 320 322 322 323 325 325 326 330 333 331 333 334 337 335 338 340 339 337 336 337 341 345 343 345 346 345 345 345 344 345 346 347 347 343 346 347 346 346 345 347 346 349 350 350 352 351 352 354 351 349 348 349 350 351 350 354 350 351 353 346 346 345 343 343 344 342 337 336 336 337
294 297 294 297 295 296 295 302 304 304 303 300 303 299 300 311 323 323 326 324 320 319 320 320 319 320 321 320 319 321 320 321 324 326 327 328 333 333 333 335 335 335 339 337 336 336 337 339 338 339 338 340 343 343 344 344 343 341 341 343 344 343 345 346 345 344 341 345 345 346 348 351 351 351 353 351 349 348 348 346 347 348 350 349 347 345 343 342 345 343 341 342 341 340 337 336 336
292 294 293 295 297 298 297 296 302 303 303 300 301 300 300 320 322 323 323 324 321 318 319 319 319 319 320 320 320 320 321 320 322 325 329 331 331 332 333 334 335 336 335 334 333 335 337 337 339 340 340 341 342 342 343 343 344 342 343 343 339 340 342 343 344 343 342 340 344 345 348 351 348 347 346 350 351 349 347 344 346 345 348 346 343 341 343 341 342 341 340 338 341 340 337 337 337
296 297 295 296 294 296 296 300 304 304 300 299 300 298 299 312 320 321 322 323 321 320 321 320 320 320 320 319 320 319 320 323 326 327 332 330 331 332 331 333 335 335 334 334 334 334 334 338 339 338 339 342 342 343 342 339 339 339 339 341 339 339 337 340 340 339 341 340 341 342 347 350 346 348 347 346 349 346 345 346 348 346 347 347 347 344 342 340 340 339 339 338 337 338 340 338 339
299 299 298 296 296 297 300 301 304 305 301 299 300 301 301 305 317 321 322 321 320 321 321 320 320 320 320 320 320 323 325 326 328 332 333 331 331 332 333 333 332 333 333 333 333 334 336 337 337 334 336 335 335 339 339 338 337 336 339 339 336 337 336 336 339 339 341 339 341 344 345 346 346 346 346 348 347 347 348 349 347 347 346 344 343 342 342 342 342 342 341 340 337 335 336 338 339
299 298 297 296 297 295 300 300 303 305 301 299 301 300 301 310 317 319 322 321 318 320 320 320 320 321 322 321 322 326 328 329 328 329 332 332 332 332 333 333 333 331 332 333 331 331 333 336 336 334 335 334 336 337 337 337 337 337 338 336 336 337 339 337 336 336 339 340 343 344 346 344 344 344 344 344 344 343 342 342 342 342 342 341 342 341 341 341 340 340 340 337 338 335 334 337 338
298 297 297 296 296 298 301 302 303 305 302 299 301 299 300 309 317 318 318 320 319 320 323 321 321 321 322 323 324 325 325 325 327 331 331 330 332 331 331 334 334 333 332 332 332 332 333 334 336 335 336 334 335 335 337 336 337 336 336 336 337 336 336 338 339 339 342 338 344 343 343 343 341 340 340 341 340 340 341 340 340 342 340 340 339 339 338 339 338 338 338 337 335 336 335 339 338
296 296 295 294 298 296 293 300 302 304 302 299 300 298 301 315 316 317 318 319 321 324 325 324 323 321 322 324 324 323 324 324 326 328 329 329 330 330 331 333 332 332 331 331 332 332 333 334 335 335 334 335 335 334 337 337 337 338 338 339 337 337 337 340 337 338 337 339 340 340 339 339 338 337 337 336 338 338 338 337 338 338 338 338 337 335 335 335 336 336 335 335 334 330 331 333 336
296 297 296 296 297 298 298 299 301 303 303 303 301 298 307 311 310 312 316 319 320 321 324 324 324 325 326 326 325 326 325 326 326 327 328 329 329 329 330 332 332 331 331 331 332 333 333 335 335 334 334 334 335 336 337 337 338 336 338 337 336 336 336 335 334 333 335 338 337 337 337 337 336 335 336 335 335 336 337 337 336 336 336 337 337 335 334 334 334 334 334 334 333 331 329 331 333
295 297 298 299 300 299 299 300 300 297 296 300 299 292 300 307 309 310 314 316 318 321 321 322 323 325 327 325 325 327 328 329 328 327 327 329 330 330 331 331 331 331 330 331 334 335 334 334 334 334 335 336 337 336 337 338 335 335 333 331 329 329 327 328 328 331 335 335 335 336 335 334 334 334 333 333 333 334 334 334 334 333 333 334 333 334 333 332 331 330 331 331 332 333 331 329 329
293 295 300 300 301 300 299 299 299 293 291 297 301 292 291 307 306 309 311 313 316 319 320 320 322 324 326 325 325 326 327 328 329 328 328 329 329 329 330 330 331 331 332 333 334 334 334 334 334 335 336 334 334 335 336 336 333 333 333 332 331 330 328 328 335 337 337 336 335 333 332 333 331 332 332 331 331 331 332 331 330 330 330 330 331 330 329 329 328 329 330 329 330 330 330 327 327
292 300 300 300 300 299 299 299 297 296 300 301 300 297 294 299 305 312 311 311 314 316 318 318 320 323 323 324 324 325 327 328 328 327 328 329 330 330 330 330 331 332 333 333 332 333 333 333 335 335 334 333 333 334 336 335 333 334 333 332 330 329 329 331 335 335 336 335 333 332 331 331 331 330 329 328 328 329 329 328 327 328 328 328 328 327 327 327 328 328 329 329 329 329 328 326 324
296 300 301 300 300 300 300 299 298 298 297 293 296 299 292 297 304 310 312 307 311 312 314 317 318 320 322 323 323 325 328 328 329 328 328 328 329 331 331 330 332 333 333 332 332 333 333 333 334 334 334 332 334 336 336 336 334 333 332 330 330 330 333 335 335 335 334 334 331 330 330 331 330 328 326 326 326 326 326 326 326 326 326 325 325 324 324 324 325 324 325 325 326 326 326 326 324
299 302 302 302 301 301 300 298 297 297 294 290 294 297 290 291 305 305 308 308 307 309 312 315 318 317 320 322 324 324 326 329 329 329 329 329 331 331 332 333 333 333 334 334 334 334 333 333 333 333 332 334 335 334 335 334 335 333 330 331 331 333 334 334 334 332 332 331 329 329 328 328 327 327 326 324 325 324 324 324 324 323 324 323 323 323 323 323 324 323 324 324 325 323 324 324 322
302 302 300 299 299 298 299 298 298 296 288 291 296 297 294 288 300 303 303 306 310 310 312 315 315 317 319 322 323 326 326 327 328 329 330 331 332 332 332 332 332 333 334 333 333 333 333 332 332 332 333 333 334 336 335 336 337 335 334 333 333 333 334 334 331 329 329 328 326 326 326 325 325 324 325 324 324 324 324 324 323 322 323 323 322 321 321 321 321 322 324 324 322 321 320 320 320
300 298 297 296 294 297 296 296 297 289 287 293 297 297 297 287 299 304 309 312 312 313 311 315 313 314 317 319 321 325 326 327 329 329 329 330 330 330 331 330 331 331 331 331 332 333 332 333 333 332 332 333 333 333 333 331 331 331 331 330 328 329 330 328 327 326 325 324 325 325 327 326 323 324 324 322 322 322 323 323 322 322 321 320 319 320 320 319 319 321 321 320 319 319 318 317 318
298 297 296 290 288 288 286 290 286 287 286 294 297 297 294 292 302 305 308 310 312 312 312 313 314 315 318 321 324 325 328 326 327 327 327 328 328 328 328 329 329 329 329 330 330 331 332 332 332 329 328 329 328 329 328 329 328 328 328 328 328 328 327 327 326 325 325 324 325 325 324 322 322 320 320 319 320 321 321 320 320 319 319 319 319 318 319 319 318 320 319 318 318 316 315 316 316
296 294 293 290 285 284 282 286 288 289 293 297 296 298 292 298 302 309 308 310 313 315 315 314 315 314 316 323 325 326 327 328 327 327 327 327 327 328 328 328 329 329 329 329 329 329 330 330 328 326 326 327 327 326 326 325 326 326 327 328 328 326 324 324 324 323 323 323 323 322 321 321 319 319 318 319 320 320 320 320 319 318 318 318 318 318 318 318 318 318 317 316 316 316 316 317 316
295 297 295 292 291 286 281 285 283 285 289 293 298 293 291 292 297 310 312 312 312 314 314 316 316 319 320 324 325 326 326 326 326 326 326 327 327 328 328 329 329 329 328 328 329 329 329 327 326 325 324 325 325 324 324 324 323 324 325 327 326 324 323 322 322 323 322 321 322 320 321 320 319 318 318 320 319 319 319 319 318 318 318 318 317 317 318 317 318 317 316 316 315 314 315 316 316
297 298 299 294 291 296 287 289 289 289 289 289 292 291 298 297 306 310 311 312 311 313 314 315 315 322 322 323 323 322 323 324 325 325 326 327 327 327 328 328 328 327 327 328 327 328 327 326 326 325 324 324 323 322 322 322 322 323 323 323 323 323 322 321 321 321 321 322 321 320 319 320 319 320 320 319 318 318 318 318 317 316 317 316 316 316 316 315 316 315 315 314 312 315 314 314 314
294 296 292 294 300 297 291 291 298 292 290 287 294 294 298 304 306 308 309 309 310 312 313 313 316 320 321 321 322 321 323 324 324 325 326 326 326 327 328 327 327 327 327 327 327 327 326 325 325 323 322 322 322 322 321 321 321 321 322 322 322 322 321 320 319 320 320 320 320 319 319 318 319 319 318 320 319 319 318 318 317 317 317 316 316 316 315 315 315 314 313 312 311 312 313 313 314
296 291 295 301 303 301 295 287 289 288 285 287 294 291 295 295 292 305 307 306 309 310 312 314 317 320 319 320 321 321 322 324 325 326 327 327 326 327 327 327 327 327 326 326 326 327 326 325 324 322 321 320 320 320 320 320 319 319 319 320 320 320 319 319 320 319 320 319 319 319 319 318 317 318 318 318 319 318 317 317 316 315 315 315 314 314 314 314 313 312 312 311 311 312 312 313 313
297 295 303 293 289 288 294 291 284 284 283 286 290 293 293 295 296 302 303 304 307 311 313 312 314 317 318 320 322 322 323 324 325 325 326 326 326 326 326 327 326 326 326 325 324 325 325 324 323 321 320 320 319 319 319 319 319 319 319 319 319 319 319 319 319 319 319 317 317 317 317 317 317 317 317 318 316 315 315 314 313 312 312 312 313 313 314 313 313 312 312 311 311 312 311 311 312
301 302 297 300 296 293 289 290 293 291 285 285 287 291 289 298 300 303 304 306 308 309 310 310 311 318 319 321 321 321 322 324 323 324 325 325 326 325 325 324 323 323 323 324 324 323 322 322 322 321 320 319 319 318 318 318 318 318 318 318 318 317 317 317 317 317 316 316 316 316 316 315 316 316 316 315 314 312 312 311 310 310 309 310 309 311 312 312 312 311 311 310 310 310 309 310 310
294 295 294 295 296 299 296 297 292 290 287 286 286 285 292 299 305 305 305 307 309 310 311 317 320 321 323 322 321 321 323 323 323 324 324 324 324 324 324 323 323 323 324 324 323 321 320 320 319 319 318 317 317 318 318 317 318 317 317 316 316 316 316 316 316 317 316 316 316 315 315 315 315 315 315 313 312 310 309 309 308 308 307 307 307 308 309 310 310 310 310 310 310 309 308 308 309
295 294 294 294 292 290 287 287 296 294 291 287 286 285 295 302 306 308 307 309 310 311 320 321 322 322 322 321 321 321 322 323 323 323 323 323 323 323 323 322 322 321 321 320 320 319 318 318 318 317 316 316 315 315 316 316 317 317 316 316 316 316 315 316 316 316 316 315 315 315 315 314 314 314 313 310 310 310 309 308 307 305 305 305 306 306 307 309 309 309 309 310 309 308 307 307 307
Wind_Speed
11 11 10 10 8 9 10 8 9 5 7 11 11 12 11 14 16 14 14 15 12 7 14 10 5 3 6 8 9 15 12 9 5 2 4 5 8 10 15 20 20 18 17 14 12 12 13 15 16 17 16 18 17 18 18 18 17 16 15 13 13 12 11 10 10 11 11 10 10 10 11 11 11 11 12 12 12 12 12 12 12 13 13 13 13 13 13 13 13 12 12 12 12 11 11 11 10
9 10 10 9 8 7 5 8 7 9 9 12 13 13 12 14 14 12 10 21 10 8 13 2 7 7 3 6 6 18 15 14 13 11 9 12 13 10 21 19 18 19 15 13 12 12 12 14 16 16 17 18 18 18 18 18 17 16 15 14 13 12 11 10 11 11 11 11 11 11 11 12 12 12 12 12 11 11 9 12 12 13 13 13 13 13 12 12 12 11 11 10 10 10 9 10 10
9 9 9 9 9 8 8 7 10 10 11 12 11 12 12 14 14 16 3 3 13 9 6 5 1 3 2 4 10 12 7 11 14 14 10 15 13 11 18 19 18 18 17 12 12 12 11 13 15 16 17 18 18 17 17 17 16 15 14 13 12 12 11 11 11 12 11 12 12 12 12 12 12 12 13 12 11 10 10 10 12 12 13 12 12 12 11 11 10 10 9 8 8 8 8 8 8
9 8 8 7 7 6 9 7 9 11 12 11 12 12 15 15 16 14 11 16 11 8 4 5 4 8 4 6 9 19 10 8 10 14 9 10 9 15 16 18 17 15 12 11 12 12 11 14 16 17 18 18 18 17 16 16 16 15 14 12 12 12 12 12 13 12 12 12 12 12 13 13 12 12 12 12 11 10 9 9 11 11 11 10 10 10 10 9 9 8 8 8 8 7 7 6 5
8 8 8 7 7 8 7 8 11 10 14 9 12 12 16 14 16 13 12 2 8 2 5 6 4 2 10 10 3 5 9 11 9 7 9 10 13 14 16 17 16 14 13 13 12 12 13 18 17 16 17 18 18 17 16 16 15 14 13 12 12 12 13 13 13 13 13 13 13 13 13 13 13 13 13 12 11 11 11 9 9 11 11 11 11 10 9 9 8 8 8 7 7 7 6 6 5
9 8 8 7 6 5 7 9 11 13 13 12 13 12 15 14 18 18 5 11 3 5 6 7 6 6 10 8 9 7 3 5 8 6 12 11 17 17 16 14 14 13 14 13 12 11 13 19 16 16 16 18 18 17 16 16 15 14 13 13 13 13 13 13 13 13 14 13 13 13 13 13 13 13 12 11 10 10 10 9 8 9 9 10 9 8 8 8 8 8 7 7 7 7 6 5 5
6 7 7 8 8 6 10 13 14 14 15 17 14 15 16 19 17 22 14 11 2 3 2 4 4 5 10 9 15 10 12 8 7 9 9 13 17 17 15 13 13 15 15 13 11 12 16 15 15 16 17 17 17 17 16 15 14 14 14 13 13 13 13 13 14 14 14 14 13 13 13 12 12 12 11 11 10 10 10 9 8 7 7 6 7 7 7 7 8 7 6 6 6 5 4 5 5
8 8 5 8 7 7 11 12 15 14 15 17 18 20 20 20 21 11 8 10 6 3 1 5 4 6 6 14 9 7 11 8 14 13 14 12 16 14 13 12 13 16 15 14 12 11 17 13 14 15 17 16 17 16 15 15 14 13 13 13 13 14 14 15 15 15 14 14 13 13 13 12 11 12 11 11 11 10 9 9 8 8 8 8 7 7 7 6 6 6 5 5 5 5 5 5 4
8 8 6 9 12 8 12 14 14 15 17 17 20 21 21 24 15 9 9 8 8 6 9 7 4 5 9 17 12 8 8 9 15 16 14 14 16 13 9 12 16 14 16 15 13 12 13 13 14 14 16 17 16 16 15 14 14 14 14 14 14 14 15 15 15 15 14 13 13 12 12 12 12 11 11 10 10 9 8 7 6 7 6 6 6 6 6 5 4 4 4 4 5 4 4 4 4
8 8 8 8 9 15 14 14 15 14 17 18 19 20 20 20 21 22 18 12 7 9 11 11 3 6 20 17 12 8 10 15 16 14 13 15 16 13 9 9 14 19 16 15 13 11 11 15 12 13 14 15 16 15 13 12 13 14 15 14 14 14 16 15 15 15 14 13 13 12 12 11 11 10 10 10 10 9 7 7 6 6 5 5 5 5 4 4 3 3 4 5 4 4 3 4 2
8 8 7 10 12 14 15 14 15 15 18 17 18 19 20 18 24 22 13 8 3 10 11 11 12 9 10 13 10 10 12 16 17 16 14 15 13 10 11 13 18 17 18 17 14 12 12 13 15 12 13 13 13 12 12 10 13 13 13 14 14 15 16 16 15 15 14 14 13 12 11 11 10 10 10 10 9 8 7 7 6 5 5 5 4 4 4 4 3 2 3 4 3 2 2 1 2
9 9 9 11 13 13 14 14 16 16 20 19 19 17 15 22 23 14 4 8 9 12 12 10 7 8 12 11 7 12 14 13 14 16 16 13 13 11 14 15 18 17 18 18 16 12 12 13 12 14 13 13 13 13 11 12 12 13 14 15 15 16 15 15 15 14 13 13 12 12 11 11 10 10 10 10 9 8 7 6 5 5 6 5 6 5 5 3 2 2 2 3 3 2 2 1 0
11 9 12 11 11 13 15 17 15 16 15 17 16 18 19 23 20 3 6 9 9 12 13 12 8 8 8 9 9 12 14 15 14 14 15 14 13 12 13 15 17 18 17 16 17 14 14 12 12 13 12 15 13 13 14 13 13 13 14 14 15 16 16 16 15 14 14 13 12 11 11 10 10 10 10 9 9 8 7 6 6 5 5 6 5 5 4 2 1 0 0 1 1 1 1 2 0
11 10 10 12 11 13 14 14 14 15 14 14 16 19 12 11 11 4 1 5 8 11 10 9 9 15 16 13 9 10 12 15 16 14 11 15 13 13 16 14 15 17 17 16 17 15 13 13 12 12 12 11 12 13 13 13 13 13 13 13 15 16 16 15 14 14 13 12 12 12 11 12 11 11 11 10 9 8 8 7 6 5 5 5 5 4 3 2 2 1 1 1 0 1 2 2 2
12 9 10 11 12 12 14 14 13 14 13 14 15 18 17 3 12 4 3 7 10 10 8 7 10 16 8 13 11 13 15 17 18 16 15 15 13 13 17 15 15 13 15 17 15 15 14 13 13 12 11 11 11 8 8 10 13 13 13 14 14 16 15 15 14 13 13 12 12 11 10 10 10 10 11 11 10 9 8 8 7 5 5 6 5 4 4 3 2 2 2 2 1 2 3 3 3
10 10 9 11 13 14 11 14 14 15 12 12 10 15 8 7 4 4 5 6 7 11 9 9 10 10 18 12 17 19 20 19 17 16 14 14 12 11 15 13 13 13 13 15 15 15 14 14 12 11 11 11 9 8 9 9 11 12 13 13 15 16 16 15 13 13 13 12 11 11 11 8 8 7 10 8 9 9 8 7 7 5 5 5 5 5 4 3 2 2 2 2 3 2 3 4 4
10 9 11 11 14 14 12 12 13 12 11 12 2 5 6 5 7 7 2 4 9 11 14 8 12 10 19 15 19 23 22 19 16 17 15 12 8 9 9 10 11 11 9 13 12 12 13 14 14 11 12 13 11 9 8 9 10 12 11 13 14 16 15 15 13 13 12 10 10 9 9 6 5 5 7 6 8 6 9 9 7 6 6 5 5 5 4 4 3 3 2 2 3 3 4 5 5
10 11 11 14 13 16 12 15 13 13 12 5 5 5 7 6 6 6 5 10 9 9 14 2 12 9 18 21 23 22 23 20 17 18 14 11 9 11 10 11 11 11 12 11 12 14 13 12 12 13 11 13 12 8 7 6 8 10 9 9 10 11 13 13 11 8 9 7 9 7 5 5 6 6 5 8 6 7 7 9 7 6 6 6 5 4 5 4 5 4 4 5 4 4 5 3 4
11 10 12 14 13 13 15 15 14 15 15 9 9 4 5 2 4 4 7 7 9 10 13 10 8 14 20 22 22 22 20 16 16 14 16 16 13 13 12 11 11 12 11 10 10 15 11 11 12 13 12 11 12 9 7 7 8 6 9 9 8 11 11 11 9 9 7 7 8 6 5 5 6 6 5 7 6 8 7 9 8 8 7 7 6 5 5 5 6 6 6 6 6 5 3 4 5
15 11 13 14 14 15 16 16 19 20 15 6 8 5 7 6 7 6 5 6 8 10 10 13 18 19 19 21 21 20 19 16 14 15 16 15 15 13 12 12 12 13 12 10 11 10 11 10 9 11 13 12 10 8 8 8 7 6 6 7 7 6 8 7 7 6 6 7 7 6 6 3 1 5 5 4 8 5 5 7 9 9 8 8 9 6 7 6 8 8 8 8 5 4 4 4 7
11 14 13 12 15 16 17 18 17 12 8 8 5 3 4 8 5 4 7 9 12 9 11 12 22 20 20 20 20 18 17 17 16 16 15 15 14 12 12 11 11 12 10 11 9 10 10 10 10 10 12 10 10 9 9 8 8 7 6 7 6 5 6 5 5 5 4 3 4 3 2 3 2 5 3 3 3 5 5 4 4 4 3 4 8 4 5 6 6 5 4 5 4 4 5 5 5
10 16 17 17 15 16 18 21 17 17 8 11 10 6 4 2 11 9 9 10 8 9 12 11 22 21 22 21 18 18 18 18 18 18 17 17 16 13 11 10 9 11 9 9 10 11 10 12 11 10 10 10 9 9 9 8 9 7 6 7 7 6 7 4 3 3 3 2 3 1 2 2 3 2 3 3 4 5 6 6 6 6 6 5 7 6 6 5 6 5 5 5 5 5 5 6 6
14 14 18 19 19 18 13 14 6 10 6 8 11 8 5 9 7 6 8 10 11 15 5 12 25 23 23 21 21 19 18 18 20 19 18 17 15 13 11 11 11 12 9 10 10 10 10 10 11 10 9 9 9 8 8 8 7 6 6 6 6 6 4 5 5 5 4 3 1 3 3 2 4 0 3 2 2 2 4 6 6 6 7 7 6 6 5 7 6 6 5 5 5 6 7 8 8
16 14 15 18 18 23 20 16 5 8 11 9 7 11 12 12 14 5 11 10 12 12 9 3 23 24 25 21 19 20 21 21 19 17 16 14 15 13 11 10 11 10 11 11 10 10 10 11 11 11 9 9 8 8 7 7 6 6 5 6 5 5 5 5 4 5 5 3 2 3 2 3 2 2 2 7 8 6 5 4 3 2 2 4 2 2 2 3 2 3 1 6 8 8 7 4 3
18 16 16 15 16 20 20 16 11 1 6 9 13 12 13 12 9 9 12 14 11 4 15 18 17 19 21 22 21 19 18 18 17 14 5 8 11 12 11 11 11 10 12 12 11 11 11 10 10 10 9 8 8 7 6 4 5 5 4 5 3 2 3 3 3 4 5 4 2 2 3 2 1 4 6 3 3 1 3 3 2 1 2 2 2 2 1 1 2 2 3 5 6 5 5 5 3
18 18 16 16 17 17 17 19 15 10 6 10 13 14 13 12 11 15 15 13 9 12 19 15 12 10 13 16 19 18 16 16 15 9 10 10 11 13 13 12 12 12 12 12 12 11 10 10 10 9 9 9 7 5 4 5 4 3 4 5 5 4 3 2 4 4 3 3 3 3 3 2 3 4 4 2 2 3 2 4 2 2 3 4 3 1 1 1 0 1 2 3 5 3 3 6 6
14 18 18 18 19 17 14 19 19 14 12 10 13 13 14 13 12 11 13 16 11 8 19 17 17 12 11 12 12 12 15 8 7 6 4 8 10 11 12 12 12 11 12 13 11 10 9 9 9 7 6 6 6 5 6 6 4 3 3 4 4 3 3 4 3 3 3 3 3 2 2 4 2 4 4 2 0 1 3 3 3 3 2 1 0 1 0 1 2 2 3 2 2 4 4 4 5
16 14 19 20 18 18 17 13 12 11 12 14 14 14 13 14 15 14 13 12 16 15 16 17 16 14 12 11 11 9 16 11 8 10 7 12 9 12 12 11 12 12 12 11 10 10 8 8 8 7 5 4 3 8 6 6 5 4 3 4 3 2 4 3 2 2 1 3 2 2 2 2 3 2 4 3 3 2 3 4 4 3 2 1 0 1 1 2 2 3 3 2 3 4 4 4 4
15 18 14 14 18 18 20 17 14 12 12 13 14 16 17 15 16 17 16 14 15 18 16 13 12 11 11 8 13 11 10 4 7 10 10 6 8 9 12 10 11 12 9 10 12 10 8 7 7 6 7 4 1 6 5 4 4 4 3 3 2 3 2 2 2 2 1 2 2 2 2 3 3 2 3 5 5 4 6 3 3 1 2 2 2 2 2 2 3 3 1 2 2 3 2 4 5
14 16 13 12 13 16 21 17 15 15 13 15 12 13 14 17 17 17 13 13 7 10 9 13 8 10 14 14 7 8 5 8 7 7 6 9 7 7 11 11 10 10 10 9 10 10 7 6 4 4 6 3 4 5 5 3 3 5 3 2 2 2 3 2 2 2 1 1 2 2 2 3 3 3 3 1 1 3 2 2 3 2 1 0 0 2 1 1 2 2 2 2 3 2 3 3 2
15 14 12 11 12 13 16 17 16 17 12 15 14 13 11 14 17 14 14 7 8 16 18 12 13 11 11 14 11 11 10 9 12 12 10 13 14 8 6 7 9 9 9 10 10 10 9 7 6 5 3 4 5 4 4 4 5 6 4 1 2 3 3 2 2 2 1 1 2 2 2 2 3 4 2 1 1 2 3 2 1 1 0 0 1 1 1 1 2 2 2 2 3 3 3 4 4
11 11 15 12 13 11 15 19 19 17 13 16 16 13 12 11 4 5 7 7 17 19 15 13 12 9 9 5 8 5 7 9 11 12 10 10 10 11 7 4 6 10 11 9 9 9 10 8 6 6 4 5 4 6 5 6 7 3 3 1 3 2 2 2 1 1 1 1 1 1 3 3 2 2 2 2 0 3 2 1 2 1 1 2 0 1 1 2 1 2 2 2 3 3 4 4 3
13 15 12 14 13 12 13 19 20 22 15 16 19 12 9 9 14 13 11 17 15 16 14 14 13 12 10 7 6 7 7 7 7 5 7 4 1 2 8 11 8 7 7 8 11 12 7 4 5 5 5 7 7 8 6 6 4 3 4 3 2 1 4 4 3 3 3 2 3 2 2 2 2 2 1 2 2 2 2 1 0 0 0 0 1 0 2 2 1 2 2 2 2 3 3 4 3
13 14 12 13 15 13 13 12 21 21 20 15 19 15 13 7 13 16 13 16 15 11 10 11 12 10 13 10 8 9 8 5 5 5 5 5 6 6 8 5 8 7 10 12 11 9 7 4 5 6 7 6 6 7 5 3 4 4 2 3 4 5 4 3 3 4 5 6 6 2 1 2 3 1 1 2 4 3 2 3 3 3 1 2 3 3 3 4 1 0 2 2 2 2 3 3 4
12 12 13 13 15 16 14 14 15 20 21 18 16 18 18 9 12 12 14 13 14 14 11 10 10 13 13 10 8 11 9 11 9 9 9 4 3 2 6 5 9 7 7 13 14 12 8 6 6 8 6 5 6 6 4 5 5 4 3 2 4 5 6 4 4 2 2 3 4 6 3 3 4 1 3 2 2 1 2 3 2 1 2 3 2 3 3 3 3 3 3 4 3 3 3 3 4
16 16 14 14 12 14 13 18 13 19 19 17 18 15 17 11 12 14 14 14 15 13 11 7 8 11 12 10 9 7 5 5 6 6 8 6 5 5 5 6 7 7 7 6 8 8 8 8 6 6 7 6 6 4 4 5 4 3 3 2 2 5 4 3 3 4 4 5 3 4 3 2 3 3 3 3 3 4 2 1 2 3 3 2 1 1 2 3 3 3 3 5 5 4 3 4 3
16 15 15 16 16 14 16 20 13 19 15 17 17 16 15 12 14 13 14 14 14 13 12 9 8 10 11 11 12 13 13 9 7 4 6 6 5 5 7 7 8 8 7 8 10 10 8 6 7 8 7 8 3 4 5 4 3 3 2 2 4 2 2 3 3 3 1 4 7 4 3 3 1 2 2 3 2 2 2 1 1 1 2 2 2 2 3 2 2 3 3 3 4 4 3 3 3
17 15 15 14 17 15 14 17 16 19 13 13 17 17 16 13 15 14 13 13 14 15 14 13 11 10 9 14 15 15 13 12 13 11 10 8 7 8 7 7 8 11 7 8 9 10 10 8 8 8 6 5 3 6 5 4 3 2 1 2 2 2 3 4 3 3 1 4 5 2 3 3 4 4 4 4 5 5 5 4 4 4 4 4 3 3 3 3 4 3 2 3 4 4 3 3 4
20 13 14 14 14 15 17 17 20 16 13 10 16 16 15 15 15 14 15 12 11 12 14 16 16 12 10 12 14 12 17 15 14 14 12 9 11 10 7 8 7 8 10 9 9 10 10 9 8 7 6 6 6 7 3 5 2 1 3 2 3 2 1 2 1 3 2 5 1 3 4 5 5 5 6 5 5 5 4 5 4 4 4 4 4 4 4 4 4 4 3 2 4 3 3 2 3
16 14 13 13 13 15 14 17 18 14 10 10 14 15 3 16 11 11 10 8 8 10 12 14 14 18 16 15 16 12 11 17 19 17 14 10 11 10 8 8 7 8 9 9 8 11 9 7 8 7 7 7 6 4 2 2 5 4 2 3 3 2 2 1 2 2 2 5 4 6 6 6 7 6 7 7 6 6 5 5 5 5 6 6 5 5 5 6 5 5 6 6 5 6 5 5 4
17 17 14 11 15 16 15 11 14 13 12 12 9 11 11 12 13 8 8 10 8 8 14 14 11 9 8 9 10 11 13 11 12 15 15 13 13 11 10 10 9 8 8 8 8 8 8 11 9 8 8 8 7 6 4 3 2 2 3 4 4 4 3 2 3 2 6 2 5 5 5 5 6 7 7 7 6 6 6 6 5 5 6 6 5 5 5 6 6 6 7 7 7 6 7 5 5
15 20 18 14 12 15 18 18 14 10 10 14 13 10 9 14 17 14 10 9 7 7 12 14 14 12 12 13 12 11 9 10 14 15 14 13 13 12 11 11 10 9 8 7 5 8 11 10 9 9 8 7 7 7 6 6 5 4 4 3 3 2 3 5 1 5 3 3 4 5 7 7 7 7 6 6 6 7 7 8 7 7 6 6 6 6 6 7 8 8 9 8 8 7 6 7 7
14 15 18 17 14 15 19 20 13 10 11 13 16 14 5 12 13 17 13 11 10 6 8 13 14 14 13 11 11 11 10 10 10 13 14 14 13 13 12 10 10 10 9 9 8 9 10 10 9 9 8 8 7 8 8 7 6 5 4 2 1 2 3 2 3 2 3 4 5 6 5 6 8 6 6 7 6 7 6 6 7 7 6 5 5 6 6 6 6 6 6 7 7 7 8 7 8
14 12 17 19 18 17 19 15 16 9 10 8 17 14 6 8 10 14 16 15 14 11 9 12 13 13 12 9 11 12 12 12 12 12 13 13 12 13 13 12 11 11 11 10 10 9 11 11 10 10 8 8 7 7 7 7 8 6 5 4 3 3 3 3 3 4 4 4 5 5 5 6 5 6 7 8 7 7 7 7 7 6 7 7 6 6 6 7 6 6 6 6 5 5 6 7 8
11 12 17 19 19 16 15 15 14 10 9 10 12 19 13 10 13 17 19 16 14 12 12 12 16 16 10 10 11 14 13 14 15 14 15 15 14 13 12 12 11 12 10 9 8 8 9 10 10 9 8 7 5 7 8 7 6 5 5 4 4 5 7 3 3 4 4 5 5 6 5 4 5 7 7 7 7 8 7 6 5 5 6 6 6 6 6 7 7 7 7 7 6 6 6 6 6
14 15 18 17 15 12 12 9 14 11 9 9 14 16 12 11 14 16 16 16 16 14 13 13 15 15 13 11 12 15 12 13 13 13 14 13 13 13 11 11 12 10 9 10 9 8 8 9 12 11 9 8 7 8 7 7 7 6 4 4 4 5 3 4 4 5 4 4 6 5 5 5 5 5 6 7 7 7 6 6 6 7 6 5 5 5 6 5 5 6 5 6 6 7 5 7 7
14 17 15 15 14 12 10 11 12 10 7 13 16 18 15 10 14 17 16 15 16 15 12 13 17 18 16 12 13 14 12 12 12 12 13 12 12 13 13 14 14 13 11 12 11 9 7 9 10 12 10 8 8 8 7 6 6 6 5 6 6 4 3 3 4 4 4 5 5 5 4 4 5 5 5 5 5 5 5 5 4 5 4 5 6 6 5 7 7 6 4 7 9 9 9 9 8
18 12 10 11 11 11 10 9 7 5 10 16 19 15 19 12 8 13 14 17 20 19 20 18 19 21 19 14 13 14 15 12 13 12 13 12 13 15 13 14 13 13 13 12 10 10 8 7 8 12 11 10 9 8 8 8 8 9 8 9 8 6 5 4 4 5 5 5 5 3 3 4 5 4 4 5 4 5 5 4 5 5 5 6 6 6 5 6 6 6 7 7 7 8 9 9 7
17 13 12 11 10 7 9 9 8 11 10 11 17 18 13 16 8 14 14 14 19 18 18 20 20 20 19 16 17 15 15 14 13 14 13 12 12 14 14 14 13 13 12 13 13 11 9 8 9 13 13 11 11 11 10 10 9 8 7 7 6 4 4 4 4 5 5 4 2 2 4 4 5 5 5 5 4 4 3 4 4 5 5 5 5 5 5 6 6 4 6 6 6 8 6 6 6
19 16 13 13 12 11 8 11 7 7 9 10 12 18 15 9 12 21 19 17 18 20 17 20 21 20 17 19 13 13 16 16 14 14 13 14 14 12 13 14 12 11 13 13 11 10 9 9 11 13 12 11 11 11 10 10 9 7 6 5 5 4 5 6 5 6 5 4 4 5 5 5 5 5 5 3 3 4 3 4 5 5 4 4 4 5 5 6 5 6 6 7 7 5 5 5 5
16 15 13 12 10 9 8 10 10 9 8 12 16 12 7 11 3 21 18 18 18 19 17 15 16 19 17 19 16 15 13 13 15 17 15 15 15 13 11 11 11 12 13 12 10 11 10 11 11 12 12 11 11 11 10 9 8 7 6 5 5 5 6 6 6 5 5 4 4 5 4 4 4 4 3 2 4 4 4 4 4 4 4 4 5 5 6 5 5 5 5 6 7 6 7 5 4
14 13 12 13 13 8 11 5 8 9 9 8 10 6 4 6 6 11 11 15 16 17 18 16 16 19 18 17 17 15 13 15 13 15 16 16 16 14 11 11 12 12 12 10 12 11 10 10 10 11 12 11 11 11 10 9 8 7 6 6 6 5 5 5 4 4 5 4 4 4 5 4 3 3 2 4 3 4 3 3 4 5 5 5 5 6 6 6 6 6 5 7 7 5 6 7 6
13 13 16 15 14 11 3 6 4 4 3 7 4 8 4 6 4 11 14 15 16 16 17 18 18 20 18 15 15 14 14 15 14 15 15 16 15 14 12 13 12 11 10 11 11 10 11 10 10 12 12 11 11 10 10 9 7 6 6 5 4 5 6 6 5 7 5 4 4 4 4 3 3 3 3 2 3 2 3 3 3 4 4 4 5 5 6 6 6 6 7 7 6 6 6 6 6
11 14 15 13 13 11 7 6 4 3 7 4 9 13 9 8 4 6 12 14 15 18 21 19 20 21 16 14 15 16 18 16 16 15 15 15 15 16 13 12 12 12 11 12 12 10 9 8 11 11 11 11 10 10 9 8 8 8 8 7 7 6 6 6 7 7 6 5 5 4 3 4 4 3 3 3 2 3 3 4 3 5 5 6 7 6 6 7 6 6 6 6 6 6 5 4 5
13 13 10 12 8 10 8 4 6 9 8 5 11 13 13 13 8 10 12 14 14 16 15 20 18 19 16 17 19 17 18 16 14 13 13 14 14 13 12 12 12 12 11 12 12 11 10 9 10 10 11 11 10 9 9 8 7 6 7 7 7 6 5 5 5 6 5 6 5 5 5 5 5 4 3 2 3 3 3 4 5 5 5 6 6 6 5 5 5 4 5 4 4 4 4 5 5
18 11 13 13 9 10 8 5 6 8 6 6 10 14 8 10 9 15 14 13 13 17 17 15 19 22 18 18 18 18 15 14 13 13 13 13 13 13 13 13 14 13 13 12 12 12 12 11 11 10 10 10 10 9 8 8 8 7 8 9 8 8 8 7 7 5 5 5 6 6 6 5 4 4 3 3 4 5 5 5 6 6 6 6 7 7 6 6 5 5 5 5 5 5 6 6 6
15 14 15 13 9 7 9 7 11 8 5 7 5 8 9 8 11 17 16 14 13 14 10 16 18 19 20 22 19 15 15 14 14 13 13 14 14 14 14 14 13 13 11 10 11 12 11 10 10 11 11 12 10 9 8 8 7 8 9 9 8 7 8 7 6 6 5 6 6 6 5 4 4 3 3 4 5 6 6 6 7 7 8 7 8 8 7 6 6 5 5 5 6 7 8 8 8
13 12 13 13 14 12 13 10 12 11 7 5 6 7 6 7 6 10 12 12 13 13 18 17 20 21 19 18 18 16 15 15 16 14 15 14 14 14 14 13 13 14 13 13 12 11 11 11 10 11 11 11 11 10 8 7 7 7 8 7 7 7 8 7 7 6 6 6 6 5 5 5 5 4 5 6 6 5 5 7 7 8 9 9 9 9 7 6 6 6 6 6 7 8 8 9 8
Wind_Direction
295 287 281 282 294 286 291 277 276 275 255 248 251 239 242 240 249 253 250 267 285 55 54 92 80 351 336 8 34 79 56 61 32 285 116 130 131 135 110 113 117 114 117 121 128 130 130 129 131 127 125 124 125 124 122 122 120 119 119 118 118 118 120 116 110 103 105 108 109 105 102 100 95 93 95 99 98 100 102 102 100 97 97 96 97 97 96 93 91 90 88 86 83 83 81 77 74
301 306 301 283 277 296 288 334 290 286 271 278 275 292 292 300 295 285 326 9 308 83 83 40 57 10 323 22 115 83 49 56 73 88 107 128 139 132 105 114 118 117 119 125 133 132 131 133 131 130 127 125 125 128 124 122 124 123 124 125 124 122 120 113 112 108 110 115 113 110 106 103 100 96 94 93 92 91 93 99 99 95 96 97 95 97 98 96 92 89 84 81 79 80 79 74 74
305 309 296 282 253 236 274 254 268 267 269 267 270 263 266 253 252 256 198 97 32 82 56 112 42 222 323 193 38 63 78 86 96 94 97 127 134 111 117 116 116 119 124 130 132 133 133 135 133 131 129 126 126 126 125 124 125 127 127 128 126 126 120 117 114 116 118 117 114 111 107 104 101 100 99 98 98 99 100 99 100 100 98 98 100 98 97 96 91 87 84 79 75 73 70 70 70
287 276 279 299 290 284 275 272 256 263 268 267 275 272 273 268 258 233 70 70 66 339 98 304 346 70 317 336 102 71 101 73 83 112 121 151 130 131 122 117 115 120 131 132 133 132 133 137 133 131 130 127 126 125 125 126 127 126 129 130 130 126 123 120 119 116 115 115 113 112 109 104 101 99 99 99 95 91 87 94 101 105 104 103 105 103 96 94 96 84 73 67 63 59 57 56 58
274 268 259 269 294 268 266 262 269 264 255 258 260 260 259 273 285 282 105 62 69 356 22 350 328 147 55 34 61 96 91 96 84 124 121 116 119 116 121 122 123 131 136 133 128 126 134 138 134 131 131 129 127 126 127 128 129 131 131 134 134 126 123 122 118 117 115 114 112 110 108 105 103 100 97 96 96 93 86 85 90 88 81 77 77 79 86 85 80 77 67 57 50 45 43 47 52
252 262 250 247 247 337 280 264 254 257 262 263 263 267 270 267 258 272 267 111 285 291 339 299 295 325 69 55 62 109 142 108 136 117 111 127 124 124 126 125 129 136 135 123 119 125 136 138 134 133 132 130 128 129 129 131 134 135 137 136 131 127 126 122 121 119 116 112 110 109 106 107 102 98 96 94 96 94 92 86 90 97 96 90 87 87 89 89 86 73 65 53 42 30 35 41 56
256 249 235 228 240 249 253 256 259 262 259 263 267 269 272 274 279 277 329 327 181 292 191 293 300 279 133 104 70 53 68 116 137 119 116 136 133 128 130 130 136 135 124 118 119 127 135 135 134 133 133 131 130 131 133 135 137 139 138 133 130 128 127 125 121 119 117 113 111 110 108 103 102 98 95 92 89 87 87 88 87 87 87 95 94 88 86 80 67 64 58 47 41 33 34 48 55
258 267 252 232 244 231 236 247 251 251 256 256 264 272 273 272 275 301 335 312 292 292 95 94 26 291 100 139 105 84 59 9 107 120 125 137 128 129 134 145 144 127 121 116 114 119 133 132 133 133 132 131 131 134 135 137 140 140 136 132 132 131 130 125 123 120 117 114 113 108 108 106 103 102 99 96 91 93 92 93 97 90 85 85 86 83 76 70 60 54 56 48 35 44 50 48 68
234 234 253 271 258 248 253 252 257 246 254 255 257 261 269 272 266 231 248 258 307 282 280 287 227 272 119 94 101 115 90 85 102 112 130 134 120 132 146 157 138 130 115 109 111 123 133 133 132 133 131 131 134 134 136 137 140 139 135 135 135 133 130 125 120 117 116 113 111 110 109 108 105 105 102 99 96 94 96 96 98 96 96 92 97 96 87 75 67 55 47 38 40 41 57 63 58
235 220 219 236 248 253 254 249 253 254 255 249 252 251 250 254 264 253 227 208 234 289 284 286 275 252 103 108 116 127 119 113 114 124 135 136 134 144 161 150 124 116 112 114 119 127 133 137 131 129 130 131 133 134 132 132 134 137 137 135 134 133 128 122 120 120 117 115 112 111 109 109 109 110 109 106 103 99 98 104 111 110 107 108 103 113 104 94 87 70 37 34 36 39 51 61 76
232 208 240 247 236 248 247 255 254 255 257 258 253 250 255 256 257 258 279 11 311 278 287 276 247 232 129 97 87 121 123 134 137 135 146 140 139 153 161 105 112 119 122 123 121 126 136 138 133 129 131 128 129 126 126 129 129 132 135 135 133 129 125 122 121 119 118 116 114 114 113 113 117 114 109 106 105 102 99 101 107 113 121 127 130 125 130 118 95 47 39 27 26 52 62 71 58
233 223 200 231 241 243 245 249 254 259 258 260 261 249 238 245 253 240 228 263 270 268 263 265 241 233 118 118 124 131 137 134 136 141 140 142 149 159 139 114 127 124 124 122 122 133 136 138 138 136 128 123 123 126 126 123 128 136 137 136 133 129 126 124 123 120 120 119 119 117 119 119 118 118 115 114 114 114 108 107 113 116 121 131 134 131 131 118 82 46 24 28 28 46 130 72 354
236 225 220 231 235 240 252 255 257 266 265 250 254 249 246 243 243 206 152 229 256 270 262 247 267 197 116 109 127 137 134 136 143 142 141 151 154 161 128 128 124 121 122 126 127 134 140 142 138 142 129 122 122 126 127 128 134 136 136 135 134 131 129 128 124 125 124 123 123 126 126 130 126 126 123 120 117 120 118 110 114 125 130 130 131 131 121 135 96 176 2 7 40 29 155 174 187
226 230 238 237 231 247 249 255 254 251 249 254 254 272 284 247 226 93 73 264 268 263 263 272 256 84 109 112 139 141 137 145 143 135 152 151 156 162 128 122 124 125 129 133 129 140 144 139 143 139 138 133 132 125 123 127 130 130 135 137 136 134 131 129 128 127 128 130 134 140 143 143 142 137 133 129 124 115 124 122 118 128 136 137 138 152 152 148 196 216 298 327 18 198 201 197 211
232 229 249 253 249 236 237 248 251 254 259 263 252 249 228 49 65 101 223 278 265 270 267 242 252 120 166 146 154 159 151 149 146 151 154 157 160 160 120 129 127 133 136 136 138 147 143 142 137 143 145 141 140 133 135 130 130 132 137 139 138 135 131 132 130 132 136 141 148 147 145 143 145 143 138 134 133 134 124 130 131 136 139 148 156 160 165 177 192 238 278 307 285 226 222 211 218
229 237 237 246 244 248 238 241 237 255 263 264 36 51 79 113 131 211 218 234 285 282 272 236 203 267 154 153 154 146 147 145 151 155 156 158 163 145 131 135 134 139 137 144 153 148 145 137 144 148 144 143 144 140 135 135 135 135 138 140 141 138 136 134 137 142 146 155 153 150 149 148 148 146 141 141 142 142 148 120 136 138 149 149 159 164 172 182 215 237 285 309 299 263 234 228 229
219 242 241 233 245 240 241 250 257 243 234 248 187 104 240 144 182 207 175 260 244 238 257 242 264 151 163 129 139 144 143 142 154 157 156 153 152 140 142 139 144 143 148 156 162 146 138 144 153 145 147 150 144 139 140 138 133 132 137 142 144 142 141 144 149 154 160 160 155 156 159 165 164 154 164 145 152 137 115 128 135 142 156 167 171 182 182 201 206 230 231 265 274 264 249 236 234
209 221 232 238 237 238 239 247 248 271 284 167 193 172 209 226 188 180 163 226 252 280 262 202 31 104 114 130 134 141 145 147 154 159 156 144 158 156 148 149 152 155 157 161 154 132 142 152 155 148 152 146 141 141 144 140 145 151 141 143 145 148 152 155 157 162 168 161 162 162 189 188 175 160 190 152 161 135 143 147 144 146 155 168 182 188 203 213 226 229 246 244 248 257 250 232 220
218 217 228 237 231 240 244 251 252 260 250 178 214 120 51 239 270 187 209 193 216 223 252 102 93 98 112 123 135 139 144 148 149 153 157 155 161 161 156 156 160 159 159 154 143 144 149 156 154 153 146 139 145 143 141 143 155 173 155 153 155 161 165 160 166 170 175 164 173 182 200 215 182 155 169 176 146 161 146 161 156 157 163 170 186 203 210 223 228 236 240 255 251 249 236 236 228
217 232 225 231 240 247 244 239 251 252 271 295 106 167 211 255 254 276 242 276 228 221 231 116 108 114 120 129 136 144 146 146 150 152 155 160 165 162 158 162 161 162 154 154 145 148 155 152 147 140 147 149 144 142 142 150 162 167 163 152 160 173 167 175 180 178 178 173 176 187 208 197 112 102 121 132 143 135 152 166 173 169 175 180 188 195 214 226 233 240 245 242 245 241 229 234 244
202 226 233 232 224 243 254 260 263 279 341 287 345 94 145 224 265 252 266 243 256 225 232 177 137 133 135 138 141 146 147 150 155 158 154 162 167 166 162 163 166 153 153 145 146 149 150 142 139 145 149 153 143 144 150 164 159 156 171 150 165 173 172 179 176 188 168 199 151 188 189 108 273 129 151 163 177 165 157 173 175 195 184 195 197 209 195 205 207 221 227 232 242 240 235 234 251
214 224 233 241 242 230 240 245 243 238 214 272 281 274 219 232 237 226 230 246 249 224 206 204 140 138 140 147 143 149 155 162 164 160 164 167 169 169 161 163 151 137 147 142 152 146 143 145 150 149 153 150 150 150 155 161 157 160 167 154 159 183 179 172 151 163 147 199 179 133 75 108 277 145 142 177 197 198 164 172 188 195 189 199 188 225 201 193 185 211 212 217 226 235 242 247 244
228 223 229 234 246 258 240 241 248 310 268 238 262 261 298 270 257 213 247 250 261 274 291 163 143 144 143 145 154 154 164 168 171 166 169 173 168 164 164 165 155 142 144 151 149 138 146 146 147 150 150 147 159 157 150 155 167 166 153 159 156 194 166 154 176 161 169 205 127 140 104 161 247 93 154 204 197 209 171 185 193 192 192 191 196 213 229 166 189 207 202 216 216 223 231 234 231
221 232 227 229 235 248 257 276 310 214 247 263 260 265 257 248 255 246 252 246 249 257 34 7 142 142 140 146 162 165 167 176 174 167 176 170 166 161 163 156 140 139 144 149 138 143 150 150 149 150 153 159 156 148 159 160 160 149 155 150 159 190 161 169 162 169 131 115 210 114 148 219 189 180 95 42 3 342 345 6 358 5 10 14 290 261 1 340 318 305 215 202 210 218 228 244 263
225 227 235 239 225 242 252 252 254 230 250 256 269 265 250 247 261 260 242 239 238 276 76 107 139 142 145 150 159 167 172 173 170 165 155 187 162 155 160 144 139 148 139 148 140 146 148 145 155 149 148 158 151 147 160 140 112 133 129 130 157 167 125 189 146 113 122 153 181 155 171 263 206 61 66 120 244 334 326 327 348 323 235 152 255 349 345 334 299 339 336 331 325 312 304 277 277
220 231 227 243 247 232 236 254 242 224 212 229 240 245 252 253 248 248 255 251 224 120 112 110 116 145 155 156 157 169 172 172 160 147 171 206 159 156 153 146 147 159 145 137 142 145 144 148 150 149 156 149 140 149 130 101 99 109 142 151 144 183 170 152 109 112 141 167 148 201 161 171 61 79 91 136 142 254 268 290 278 270 233 174 201 181 239 196 293 280 291 292 293 317 319 317 320
204 221 237 231 241 251 231 234 231 223 227 234 236 237 241 239 242 244 234 250 257 181 124 130 140 163 154 162 164 172 172 131 69 149 2 288 172 161 153 141 144 141 138 134 138 136 141 147 146 150 156 133 146 126 97 106 123 149 178 113 141 197 115 93 117 138 192 149 149 154 153 101 107 114 127 164 233 264 276 271 250 247 274 290 56 262 185 250 243 247 258 294 310 308 313 314 292
245 223 222 232 239 244 251 250 247 214 222 231 247 250 250 241 231 240 242 213 230 235 139 152 161 161 161 168 168 55 37 42 45 337 234 216 198 163 151 146 142 138 137 135 131 131 145 137 133 140 113 111 139 115 121 134 155 165 159 111 169 179 105 127 162 140 99 82 90 97 78 93 108 152 146 176 195 201 238 243 243 214 252 226 248 230 229 271 267 268 266 260 257 274 299 308 315
234 244 248 233 220 238 243 237 221 229 243 232 227 249 244 237 234 234 234 251 222 227 152 175 171 166 169 141 70 91 85 100 195 194 229 264 244 163 143 140 134 132 136 135 128 131 126 111 121 128 118 127 117 114 119 138 158 138 115 139 164 99 126 98 88 100 71 99 96 147 157 159 157 168 204 181 180 192 227 225 256 262 203 188 180 252 250 226 251 257 272 306 301 281 286 277 294
238 235 233 238 239 233 232 231 223 223 228 235 214 237 234 234 238 241 230 232 257 168 76 27 28 41 33 43 73 89 123 150 208 210 233 235 229 175 139 128 125 127 128 129 120 115 106 102 99 81 99 125 93 101 119 169 128 103 94 78 95 96 61 66 57 45 65 102 134 197 190 174 164 178 194 222 156 188 186 176 218 233 208 233 220 198 236 274 301 288 299 271 267 287 281 278 281
228 230 228 230 231 231 221 223 204 225 211 220 220 240 237 237 231 234 250 186 175 65 60 72 75 70 38 34 37 28 16 22 11 1 7 354 345 332 82 111 116 116 114 122 118 112 109 98 87 91 128 116 99 124 155 96 86 79 63 260 105 75 68 53 40 31 358 279 170 191 206 195 172 185 193 141 255 217 183 200 200 268 217 289 225 162 307 309 273 326 314 316 322 319 300 289 276
225 222 219 223 233 236 222 209 212 216 206 210 222 238 243 245 284 324 278 102 90 104 101 95 89 86 102 76 48 49 24 18 27 354 21 11 353 340 345 99 90 109 112 110 109 106 93 97 115 128 145 126 106 81 52 69 72 57 114 35 51 92 90 68 22 347 284 321 329 181 204 197 185 187 164 163 64 318 335 177 189 227 67 256 115 11 292 273 271 243 259 275 294 294 296 295 283
214 221 217 219 217 232 242 203 206 209 218 201 217 236 226 228 101 109 101 90 93 94 118 113 115 108 106 115 98 77 75 41 76 2 357 57 112 291 347 16 17 26 35 72 70 52 37 24 75 116 77 54 77 58 34 54 66 65 60 55 86 33 53 27 19 328 337 339 315 267 208 181 212 140 188 123 72 305 289 2 283 92 247 37 339 355 272 271 322 323 311 304 287 292 304 302 306
213 205 224 218 218 213 237 226 195 198 208 211 205 230 238 95 91 96 87 93 101 104 91 110 125 139 131 124 114 102 114 150 135 145 246 204 159 154 122 117 93 81 75 74 88 135 151 134 88 52 57 61 61 76 83 60 62 37 10 336 19 28 49 66 42 350 345 357 298 269 309 353 40 281 162 96 136 238 313 19 2 2 354 14 0 338 337 300 273 306 303 300 318 309 294 308 311
201 197 210 221 224 221 219 235 185 191 194 223 205 216 229 137 116 100 110 109 107 116 131 135 140 133 133 123 136 149 146 174 154 148 197 196 148 57 90 98 104 87 84 126 148 157 128 101 100 102 115 103 88 75 71 66 47 66 101 48 25 19 28 29 349 359 358 323 320 320 40 279 141 230 342 47 3 358 82 86 267 3 3 8 49 304 293 325 359 0 339 328 331 317 301 297 294
210 197 206 219 221 214 220 237 191 179 188 210 222 208 217 183 131 131 126 125 118 123 132 137 138 128 134 138 132 122 115 105 114 164 164 158 158 147 109 100 96 111 120 136 126 88 91 99 97 99 79 79 76 92 71 64 38 44 50 44 107 58 23 7 1 333 41 333 285 279 243 326 15 6 78 56 1 357 51 298 19 22 15 243 243 284 329 348 358 336 357 341 326 316 305 296 315
213 208 207 214 222 226 212 235 181 176 193 206 220 217 208 191 152 153 141 129 126 129 133 140 144 140 135 141 135 141 142 137 129 137 124 141 124 101 109 107 113 113 131 116 102 104 107 116 120 94 56 46 26 53 55 43 41 13 13 51 59 53 140 26 17 343 53 245 253 208 132 125 176 96 65 58 37 56 350 353 19 284 272 338 4 351 324 342 339 12 9 331 318 320 315 323 327
233 215 217 212 213 231 214 219 213 167 199 201 213 224 216 172 157 152 145 146 148 147 143 146 147 147 144 145 149 149 135 139 151 150 147 157 133 115 115 115 127 127 126 117 118 128 132 123 108 108 104 138 128 72 49 44 0 342 357 46 86 116 107 150 200 200 164 288 241 174 39 64 59 48 46 53 42 25 16 5 6 20 357 13 358 352 351 355 357 2 16 348 335 321 315 334 329
243 240 213 220 210 226 234 211 226 182 183 223 194 224 223 150 150 145 151 153 161 163 150 150 149 157 150 149 151 149 148 154 158 146 147 149 125 121 128 135 124 122 126 124 130 128 114 104 107 116 130 128 87 69 73 157 140 63 37 15 47 24 346 335 2 44 75 230 257 44 43 40 40 39 24 35 39 27 13 8 0 7 10 13 1 352 358 12 15 353 356 356 320 324 310 327 344
233 240 247 218 208 202 223 210 221 189 171 217 190 208 101 108 121 130 128 133 142 150 145 145 155 162 166 161 156 159 167 160 157 151 144 136 129 132 141 136 121 128 126 131 144 121 116 123 127 142 130 101 101 120 169 50 65 68 68 98 56 37 30 72 57 357 351 250 54 43 42 40 37 33 30 30 33 22 10 14 6 8 18 15 9 7 356 13 1 1 10 358 350 343 348 338 336
229 235 232 236 212 206 233 197 209 161 176 235 194 176 121 143 134 130 140 132 141 143 139 144 145 153 141 133 142 159 173 176 149 141 136 136 138 142 155 146 143 137 140 146 144 133 129 131 146 143 114 108 112 118 94 66 62 78 83 58 41 34 358 9 34 358 232 57 61 41 45 49 42 34 34 32 29 17 12 21 11 17 21 10 6 3 5 8 3 5 9 1 6 355 344 338 326
220 229 232 234 227 205 209 233 188 174 193 196 229 199 183 150 151 150 148 142 136 153 145 142 151 155 157 155 162 169 177 182 152 140 136 133 135 138 147 155 149 141 141 148 134 124 125 136 135 114 106 105 109 113 100 97 62 37 30 70 81 51 0 16 313 193 112 56 63 57 43 42 45 36 34 35 27 20 20 20 17 15 20 9 2 0 18 13 10 9 7 1 354 1 350 337 339
218 211 227 237 223 212 207 229 165 180 207 184 211 238 186 155 165 150 156 159 147 169 163 147 159 165 160 168 172 182 169 154 122 120 131 136 138 136 144 153 152 145 143 142 134 135 138 132 123 126 120 120 126 122 114 111 126 135 156 120 107 102 100 245 220 67 76 88 78 66 55 47 47 41 31 30 30 25 23 27 24 15 9 9 0 19 9 19 12 7 4 358 358 355 357 348 351
217 194 214 235 251 228 214 204 155 195 201 208 205 225 218 168 184 151 168 161 160 163 181 158 156 168 168 165 176 168 156 139 129 130 134 140 148 146 142 150 155 147 138 135 138 148 142 131 124 119 124 127 128 132 134 131 132 136 123 129 118 57 261 184 143 95 77 77 82 79 65 51 52 45 42 29 24 26 22 26 20 14 11 359 358 19 5 11 9 7 3 358 354 2 357 0 354
212 190 213 225 237 253 238 221 193 188 182 222 216 212 232 190 177 175 168 161 164 174 173 175 162 164 159 151 172 154 132 140 140 147 149 151 151 140 137 151 150 141 138 140 145 142 128 125 119 122 126 122 126 120 114 120 113 105 116 136 111 169 216 146 101 75 77 79 90 78 83 79 67 52 43 33 25 25 21 16 19 21 13 13 5 14 10 8 5 8 4 355 360 10 3 360 356
211 208 204 222 231 253 260 264 255 201 199 222 221 203 224 228 155 169 184 166 168 181 179 172 162 153 162 161 170 137 150 142 152 144 143 146 144 139 136 138 142 136 129 132 129 127 130 128 121 122 119 121 119 106 109 115 131 135 130 108 193 168 146 88 85 100 90 88 80 75 63 63 56 57 59 40 32 32 23 19 19 25 22 11 16 6 7 0 1 13 358 352 4 15 0 6 6
205 225 195 206 218 227 250 270 252 204 208 232 236 201 214 226 166 172 179 175 174 171 171 178 165 160 167 161 167 135 139 142 145 147 134 132 128 129 137 139 133 133 132 130 131 132 131 128 130 123 121 120 118 123 130 126 121 111 106 81 60 73 79 101 125 101 100 78 76 69 74 74 65 53 46 56 35 29 33 26 15 24 29 9 17 9 356 11 13 344 355 11 18 14 21 8 1
211 216 218 184 205 224 235 260 242 193 218 222 229 229 193 231 161 183 179 168 174 166 167 178 173 163 168 163 171 137 143 147 145 133 130 128 131 137 133 130 132 131 130 127 126 130 128 141 135 124 120 112 109 98 89 81 75 77 73 71 61 39 65 76 69 87 83 75 65 105 137 121 97 87 63 64 38 30 25 15 26 22 23 22 17 11 2 19 0 347 23 23 15 23 19 9 357
212 219 217 187 187 193 211 218 223 210 217 205 215 232 216 215 160 175 170 173 174 172 170 174 172 165 160 147 141 148 146 144 147 138 133 138 136 139 137 135 137 136 132 130 129 130 133 132 118 106 102 102 96 89 82 78 77 73 78 87 82 68 76 82 94 93 84 89 118 79 52 56 65 67 49 39 41 43 33 27 30 25 23 20 25 10 10 24 355 6 31 22 29 29 15 359 7
206 215 204 196 191 185 210 201 220 225 241 258 219 219 244 203 155 169 174 181 171 169 174 174 171 162 163 136 132 135 145 143 140 139 145 145 143 138 138 137 136 134 133 131 132 131 133 119 103 99 101 98 96 92 89 86 85 88 83 87 95 95 78 57 43 59 57 73 71 49 48 57 64 53 58 46 19 47 45 44 42 34 25 24 23 14 19 30 0 24 17 29 31 22 356 1 17
204 211 200 206 207 189 195 198 201 210 213 221 251 234 219 214 175 172 172 175 175 170 173 167 157 145 136 133 137 130 132 139 144 151 152 147 143 139 137 139 141 138 135 135 134 132 127 115 111 108 104 104 98 95 92 87 76 67 72 72 88 85 66 64 52 42 56 64 63 80 68 70 66 54 62 40 36 30 29 42 47 33 28 24 25 21 28 20 21 29 21 31 31 11 346 359 16
204 206 195 203 215 176 214 178 216 211 218 236 217 262 187 206 8 156 162 169 176 162 164 153 146 115 127 136 138 143 150 148 147 148 151 145 141 144 146 141 137 134 134 135 134 131 121 117 117 112 109 102 98 97 95 88 77 71 67 66 80 103 116 102 87 62 62 59 62 75 81 71 79 95 57 61 50 44 20 42 41 42 34 32 32 25 34 23 26 28 15 43 28 1 346 5 7
186 201 199 206 207 201 176 200 162 33 299 230 186 223 124 43 188 130 170 166 168 163 156 161 132 125 131 139 142 145 149 148 146 152 154 144 145 150 149 141 138 136 135 134 132 125 121 122 116 106 101 101 98 98 99 101 103 103 98 101 88 78 87 104 104 99 92 82 83 79 85 90 79 60 63 57 65 61 50 30 54 37 41 38 37 30 39 36 32 29 26 33 17 357 359 15 0
180 206 193 207 232 244 206 206 132 240 220 211 204 207 184 184 149 191 170 178 174 175 157 148 137 134 137 144 145 149 152 153 152 151 150 144 148 151 144 138 138 138 137 133 124 121 121 117 114 109 111 111 112 113 111 115 122 129 133 129 122 115 118 126 135 134 132 124 117 107 102 93 86 78 68 61 50 68 51 46 44 46 34 43 35 28 33 43 37 39 34 31 18 5 6 359 3
216 204 160 204 185 233 230 222 191 190 213 219 219 218 217 199 160 175 167 184 174 148 154 151 152 134 139 144 150 146 150 151 152 150 148 147 147 142 137 137 136 132 124 119 122 123 119 112 107 113 118 121 120 119 122 125 140 135 120 115 114 122 130 109 80 86 95 105 99 92 82 72 66 62 60 58 62 40 58 54 40 45 37 42 42 30 31 44 35 46 44 36 17 1 356 25 12
230 196 184 207 234 222 220 207 237 195 207 218 219 217 228 199 168 175 173 190 177 163 164 177 156 143 145 146 148 151 149 151 147 149 146 143 140 136 135 132 132 129 126 129 132 129 121 119 121 118 120 123 122 124 136 143 131 125 129 132 131 127 116 114 116 110 109 105 101 92 87 78 78 75 53 61 53 55 45 57 50 43 44 40 42 32 20 30 26 36 41 22 11 12 11 24 7
203 219 196 185 235 223 239 185 220 197 210 204 219 217 220 206 155 175 177 190 184 175 154 132 134 135 140 145 146 150 148 150 147 141 140 139 135 133 133 132 131 131 135 131 123 121 114 111 118 126 126 128 131 140 133 125 138 134 129 118 114 106 107 105 102 99 96 94 85 90 89 90 93 79 80 62 59 56 55 46 51 47 42 36 40 35 20 24 18 24 39 21 19 22 12 31 13
202 222 201 194 199 209 196 216 202 217 205 207 197 237 216 191 199 177 179 170 169 180 129 133 136 133 129 137 144 148 150 146 148 143 143 136 138 136 136 135 135 141 133 114 110 113 123 129 130 128 130 134 133 123 126 127 111 106 102 103 102 109 102 99 107 114 112 102 99 93 87 83 76 74 63 62 60 53 56 55 46 47 42 38 35 33 22 25 17 17 32 21 32 20 24 32 19